Year,Month,Day,Hour,Minute,Value (Times are PST for temperature in C)
2007,07,18,00,00,16.60
2007,07,18,00,01,16.60
2007,07,18,00,02,16.60
2007,07,18,00,03,16.60
2007,07,18,00,04,16.60
2007,07,18,00,05,16.60
2007,07,18,00,06,16.60
2007,07,18,00,07,16.60
2007,07,18,00,08,16.50
2007,07,18,00,09,16.50
2007,07,18,00,10,16.50
2007,07,18,00,11,16.50
2007,07,18,00,12,16.50
2007,07,18,00,13,16.50
2007,07,18,00,14,16.50
2007,07,18,00,15,16.40
2007,07,18,00,16,16.40
2007,07,18,00,17,16.40
2007,07,18,00,18,16.40
2007,07,18,00,19,16.40
2007,07,18,00,20,16.40
2007,07,18,00,21,16.30
2007,07,18,00,22,16.30
2007,07,18,00,23,16.30
2007,07,18,00,24,16.30
2007,07,18,00,25,16.30
2007,07,18,00,26,16.30
2007,07,18,00,27,16.30
2007,07,18,00,28,16.30
2007,07,18,00,29,16.30
2007,07,18,00,30,16.30
2007,07,18,00,31,16.30
2007,07,18,00,32,16.20
2007,07,18,00,33,16.20
2007,07,18,00,34,16.20
2007,07,18,00,35,16.20
2007,07,18,00,36,16.20
2007,07,18,00,37,16.20
2007,07,18,00,38,16.20
2007,07,18,00,39,16.20
2007,07,18,00,40,16.20
2007,07,18,00,41,16.20
2007,07,18,00,42,16.20
2007,07,18,00,43,16.20
2007,07,18,00,44,16.20
2007,07,18,00,45,16.20
2007,07,18,00,46,16.20
2007,07,18,00,47,16.20
2007,07,18,00,48,16.20
2007,07,18,00,49,16.20
2007,07,18,00,50,16.20
2007,07,18,00,51,16.20
2007,07,18,00,52,16.20
2007,07,18,00,53,16.20
2007,07,18,00,54,16.20
2007,07,18,00,55,16.20
2007,07,18,00,56,16.20
2007,07,18,00,57,16.20
2007,07,18,00,58,16.20
2007,07,18,00,59,16.20
2007,07,18,01,00,16.20
2007,07,18,01,01,16.10
2007,07,18,01,02,16.10
2007,07,18,01,03,16.10
2007,07,18,01,04,16.10
2007,07,18,01,05,16.10
2007,07,18,01,06,16.10
2007,07,18,01,07,16.10
2007,07,18,01,08,16.10
2007,07,18,01,09,16.10
2007,07,18,01,10,16.10
2007,07,18,01,11,16.10
2007,07,18,01,12,16.10
2007,07,18,01,13,16.10
2007,07,18,01,14,16.10
2007,07,18,01,15,16.10
2007,07,18,01,16,16.10
2007,07,18,01,17,16.10
2007,07,18,01,18,16.10
2007,07,18,01,19,16.10
2007,07,18,01,20,16.10
2007,07,18,01,21,16.10
2007,07,18,01,22,16.10
2007,07,18,01,23,16.10
2007,07,18,01,24,16.10
2007,07,18,01,25,16.10
2007,07,18,01,26,16.20
2007,07,18,01,27,16.20
2007,07,18,01,28,16.20
2007,07,18,01,29,16.20
2007,07,18,01,30,16.20
2007,07,18,01,31,16.20
2007,07,18,01,32,16.20
2007,07,18,01,33,16.20
2007,07,18,01,34,16.20
2007,07,18,01,35,16.20
2007,07,18,01,36,16.20
2007,07,18,01,37,16.20
2007,07,18,01,38,16.20
2007,07,18,01,39,16.20
2007,07,18,01,40,16.20
2007,07,18,01,41,16.20
2007,07,18,01,42,16.20
2007,07,18,01,43,16.20
2007,07,18,01,44,16.20
2007,07,18,01,45,16.20
2007,07,18,01,46,16.20
2007,07,18,01,47,16.20
2007,07,18,01,48,16.20
2007,07,18,01,49,16.20
2007,07,18,01,50,16.20
2007,07,18,01,51,16.20
2007,07,18,01,52,16.20
2007,07,18,01,53,16.20
2007,07,18,01,54,16.20
2007,07,18,01,55,16.20
2007,07,18,01,56,16.20
2007,07,18,03,37,15.50
2007,07,18,03,38,15.50
2007,07,18,03,39,15.50
2007,07,18,03,40,15.50
2007,07,18,03,41,15.50
2007,07,18,03,42,15.50
2007,07,18,03,43,15.50
2007,07,18,03,44,15.50
2007,07,18,03,45,15.50
2007,07,18,03,46,15.50
2007,07,18,03,47,15.60
2007,07,18,03,48,15.60
2007,07,18,03,49,15.60
2007,07,18,03,50,15.60
2007,07,18,03,51,15.60
2007,07,18,03,52,15.60
2007,07,18,03,53,15.60
2007,07,18,03,54,15.60
2007,07,18,03,55,15.60
2007,07,18,03,56,15.60
2007,07,18,03,57,15.60
2007,07,18,03,58,15.60
2007,07,18,03,59,15.60
2007,07,18,04,00,15.70
2007,07,18,04,01,15.70
2007,07,18,04,02,15.70
2007,07,18,04,03,15.70
2007,07,18,04,04,15.70
2007,07,18,04,05,15.70
2007,07,18,04,06,15.70
2007,07,18,04,07,15.70
2007,07,18,04,08,15.70
2007,07,18,04,09,15.70
2007,07,18,04,10,15.70
2007,07,18,04,11,15.70
2007,07,18,04,12,15.70
2007,07,18,04,13,15.60
2007,07,18,04,14,15.60
2007,07,18,04,15,15.60
2007,07,18,04,16,15.60
2007,07,18,04,17,15.60
2007,07,18,04,18,15.60
2007,07,18,04,19,15.60
2007,07,18,04,20,15.60
2007,07,18,04,21,15.60
2007,07,18,04,22,15.60
2007,07,18,04,23,15.60
2007,07,18,04,24,15.60
2007,07,18,04,25,15.60
2007,07,18,04,26,15.60
2007,07,18,04,27,15.60
2007,07,18,04,28,15.60
2007,07,18,04,29,15.60
2007,07,18,04,30,15.60
2007,07,18,04,31,15.60
2007,07,18,04,32,15.60
2007,07,18,04,33,15.60
2007,07,18,04,34,15.60
2007,07,18,04,35,15.60
2007,07,18,04,36,15.60
2007,07,18,04,37,15.60
2007,07,18,04,38,15.70
2007,07,18,04,39,15.70
2007,07,18,04,40,15.70
2007,07,18,04,41,15.70
2007,07,18,04,42,15.70
2007,07,18,04,43,15.70
2007,07,18,04,44,15.70
2007,07,18,04,45,15.70
2007,07,18,04,46,15.70
2007,07,18,04,47,15.60
2007,07,18,04,48,15.60
2007,07,18,04,49,15.60
2007,07,18,04,50,15.60
2007,07,18,04,51,15.60
2007,07,18,04,52,15.60
2007,07,18,04,53,15.60
2007,07,18,04,54,15.60
2007,07,18,04,55,15.60
2007,07,18,04,56,15.60
2007,07,18,04,57,15.60
2007,07,18,04,58,15.60
2007,07,18,04,59,15.60
2007,07,18,05,00,15.60
2007,07,18,05,01,15.60
2007,07,18,05,02,15.60
2007,07,18,05,03,15.60
2007,07,18,05,04,15.60
2007,07,18,05,05,15.60
2007,07,18,05,06,15.60
2007,07,18,05,07,15.60
2007,07,18,05,08,15.60
2007,07,18,05,09,15.60
2007,07,18,05,10,15.60
2007,07,18,05,11,15.60
2007,07,18,05,12,15.60
2007,07,18,05,13,15.60
2007,07,18,05,14,15.60
2007,07,18,05,15,15.60
2007,07,18,05,16,15.50
2007,07,18,05,17,15.50
2007,07,18,05,18,15.50
2007,07,18,05,19,15.40
2007,07,18,05,20,15.40
2007,07,18,05,21,15.40
2007,07,18,05,22,15.40
2007,07,18,05,23,15.40
2007,07,18,05,24,15.40
2007,07,18,05,25,15.30
2007,07,18,05,26,15.30
2007,07,18,05,27,15.30
2007,07,18,05,28,15.30
2007,07,18,05,29,15.30
2007,07,18,05,30,15.30
2007,07,18,05,31,15.30
2007,07,18,05,32,15.30
2007,07,18,05,33,15.30
2007,07,18,05,34,15.30
2007,07,18,05,35,15.30
2007,07,18,05,36,15.30
2007,07,18,05,37,15.30
2007,07,18,05,38,15.30
2007,07,18,05,39,15.20
2007,07,18,05,40,15.20
2007,07,18,05,41,15.20
2007,07,18,05,42,15.20
2007,07,18,05,43,15.10
2007,07,18,05,44,15.10
2007,07,18,05,45,15.00
2007,07,18,05,46,15.00
2007,07,18,05,47,15.00
2007,07,18,05,48,15.00
2007,07,18,05,49,15.00
2007,07,18,05,50,15.00
2007,07,18,05,51,15.00
2007,07,18,05,52,15.00
2007,07,18,05,53,15.00
2007,07,18,05,54,15.00
2007,07,18,05,55,15.00
2007,07,18,05,56,15.00
2007,07,18,05,57,15.00
2007,07,18,05,58,15.00
2007,07,18,05,59,15.00
2007,07,18,06,00,15.00
2007,07,18,06,01,15.00
2007,07,18,06,02,15.00
2007,07,18,06,03,15.00
2007,07,18,06,04,15.00
2007,07,18,06,05,15.00
2007,07,18,06,06,15.00
2007,07,18,06,07,15.00
2007,07,18,06,08,15.00
2007,07,18,06,09,14.90
2007,07,18,06,10,14.90
2007,07,18,06,11,14.90
2007,07,18,06,12,14.90
2007,07,18,06,13,14.90
2007,07,18,06,14,14.90
2007,07,18,06,15,14.90
2007,07,18,06,16,15.00
2007,07,18,06,17,15.00
2007,07,18,06,18,15.00
2007,07,18,06,19,15.00
2007,07,18,06,20,15.00
2007,07,18,06,21,15.00
2007,07,18,06,22,15.00
2007,07,18,06,23,15.00
2007,07,18,06,24,15.00
2007,07,18,06,25,15.00
2007,07,18,06,26,15.00
2007,07,18,06,27,15.00
2007,07,18,06,28,15.00
2007,07,18,06,29,15.00
2007,07,18,06,30,15.00
2007,07,18,06,31,15.00
2007,07,18,06,32,15.00
2007,07,18,06,33,15.00
2007,07,18,06,34,15.00
2007,07,18,06,35,15.00
2007,07,18,06,36,15.00
2007,07,18,06,37,15.00
2007,07,18,06,38,15.00
2007,07,18,06,39,15.00
2007,07,18,06,40,15.00
2007,07,18,06,41,15.00
2007,07,18,06,42,15.00
2007,07,18,06,43,15.00
2007,07,18,06,44,15.00
2007,07,18,06,45,15.00
2007,07,18,06,46,15.00
2007,07,18,06,47,15.00
2007,07,18,06,48,15.10
2007,07,18,06,49,15.20
2007,07,18,06,50,15.20
2007,07,18,06,51,15.20
2007,07,18,06,52,15.30
2007,07,18,06,53,15.30
2007,07,18,06,54,15.30
2007,07,18,06,55,15.30
2007,07,18,06,56,15.30
2007,07,18,06,57,15.30
2007,07,18,06,58,15.30
2007,07,18,06,59,15.30
2007,07,18,07,00,15.30
2007,07,18,07,01,15.30
2007,07,18,07,02,15.30
2007,07,18,07,03,15.30
2007,07,18,07,04,15.30
2007,07,18,07,05,15.30
2007,07,18,07,06,15.30
2007,07,18,07,07,15.30
2007,07,18,07,08,15.30
2007,07,18,07,09,15.30
2007,07,18,07,10,15.30
2007,07,18,07,11,15.30
2007,07,18,07,12,15.30
2007,07,18,07,13,15.30
2007,07,18,07,14,15.30
2007,07,18,07,15,15.40
2007,07,18,07,16,15.40
2007,07,18,07,17,15.40
2007,07,18,07,18,15.40
2007,07,18,07,19,15.40
2007,07,18,07,20,15.40
2007,07,18,07,21,15.40
2007,07,18,07,22,15.40
2007,07,18,07,23,15.50
2007,07,18,07,24,15.50
2007,07,18,07,25,15.50
2007,07,18,07,26,15.60
2007,07,18,07,27,15.60
2007,07,18,07,28,15.60
2007,07,18,07,29,15.70
2007,07,18,07,30,15.70
2007,07,18,07,31,15.70
2007,07,18,07,32,15.70
2007,07,18,07,33,15.70
2007,07,18,07,34,15.80
2007,07,18,07,35,15.80
2007,07,18,07,36,15.80
2007,07,18,07,37,15.80
2007,07,18,07,38,15.80
2007,07,18,07,39,15.80
2007,07,18,07,40,15.80
2007,07,18,07,41,15.80
2007,07,18,07,42,15.80
2007,07,18,07,43,15.80
2007,07,18,07,44,15.80
2007,07,18,07,45,15.80
2007,07,18,07,46,15.90
2007,07,18,07,47,15.90
2007,07,18,07,48,15.90
2007,07,18,07,49,15.90
2007,07,18,07,50,15.90
2007,07,18,07,51,15.90
2007,07,18,07,52,15.90
2007,07,18,07,53,15.90
2007,07,18,07,54,16.00
2007,07,18,07,55,16.00
2007,07,18,07,56,16.00
2007,07,18,07,57,16.00
2007,07,18,07,58,16.00
2007,07,18,07,59,16.10
2007,07,18,08,00,16.10
2007,07,18,08,01,16.10
2007,07,18,08,02,16.10
2007,07,18,08,03,16.10
2007,07,18,08,04,16.10
2007,07,18,08,05,16.10
2007,07,18,08,06,16.10
2007,07,18,08,07,16.10
2007,07,18,08,08,16.10
2007,07,18,08,09,16.10
2007,07,18,08,10,16.10
2007,07,18,08,11,16.10
2007,07,18,08,12,16.10
2007,07,18,08,13,16.10
2007,07,18,08,14,16.10
2007,07,18,08,15,16.10
2007,07,18,08,16,16.20
2007,07,18,08,17,16.20
2007,07,18,08,18,16.20
2007,07,18,08,19,16.20
2007,07,18,08,20,16.20
2007,07,18,08,21,16.20
2007,07,18,08,22,16.20
2007,07,18,08,23,16.20
2007,07,18,08,24,16.20
2007,07,18,08,25,16.20
2007,07,18,08,26,16.30
2007,07,18,08,27,16.30
2007,07,18,08,28,16.30
2007,07,18,08,29,16.30
2007,07,18,08,30,16.30
2007,07,18,08,31,16.30
2007,07,18,08,32,16.30
2007,07,18,08,33,16.30
2007,07,18,08,34,16.30
2007,07,18,08,35,16.40
2007,07,18,08,36,16.40
2007,07,18,08,37,16.40
2007,07,18,08,38,16.40
2007,07,18,08,39,16.40
2007,07,18,08,40,16.50
2007,07,18,08,41,16.50
2007,07,18,08,42,16.50
2007,07,18,08,43,16.50
2007,07,18,08,44,16.60
2007,07,18,08,45,16.60
2007,07,18,08,46,16.60
2007,07,18,08,47,16.70
2007,07,18,08,48,16.70
2007,07,18,08,49,16.70
2007,07,18,08,50,16.70
2007,07,18,08,51,16.70
2007,07,18,08,52,16.70
2007,07,18,08,53,16.70
2007,07,18,08,54,16.80
2007,07,18,08,55,16.80
2007,07,18,08,56,16.80
2007,07,18,08,57,16.80
2007,07,18,08,58,16.80
2007,07,18,08,59,16.80
2007,07,18,09,00,16.80
2007,07,18,09,01,16.80
2007,07,18,09,02,16.80
2007,07,18,09,03,16.90
2007,07,18,09,04,16.90
2007,07,18,09,05,16.90
2007,07,18,09,06,16.90
2007,07,18,09,07,16.90
2007,07,18,09,08,16.90
2007,07,18,09,09,16.90
2007,07,18,09,10,16.90
2007,07,18,09,11,16.90
2007,07,18,09,12,16.90
2007,07,18,09,13,16.90
2007,07,18,09,14,17.00
2007,07,18,09,15,17.00
2007,07,18,09,16,17.00
2007,07,18,09,17,17.10
2007,07,18,09,18,17.10
2007,07,18,09,19,17.10
2007,07,18,09,20,17.10
2007,07,18,09,21,17.10
2007,07,18,09,22,17.10
2007,07,18,09,23,17.10
2007,07,18,09,24,17.10
2007,07,18,09,25,17.10
2007,07,18,09,26,17.10
2007,07,18,09,27,17.10
2007,07,18,09,28,17.10
2007,07,18,09,29,17.10
2007,07,18,09,30,17.10
2007,07,18,09,31,17.10
2007,07,18,09,32,17.20
2007,07,18,09,33,17.20
2007,07,18,09,34,17.20
2007,07,18,09,35,17.20
2007,07,18,09,36,17.20
2007,07,18,09,37,17.20
2007,07,18,09,38,17.20
2007,07,18,09,39,17.20
2007,07,18,09,40,17.20
2007,07,18,09,41,17.20
2007,07,18,09,42,17.20
2007,07,18,09,43,17.20
2007,07,18,09,44,17.20
2007,07,18,09,45,17.20
2007,07,18,09,46,17.20
2007,07,18,09,47,17.20
2007,07,18,09,48,17.20
2007,07,18,09,49,17.20
2007,07,18,09,50,17.20
2007,07,18,09,51,17.20
2007,07,18,09,52,17.30
2007,07,18,09,53,17.30
2007,07,18,09,54,17.30
2007,07,18,09,55,17.30
2007,07,18,09,56,17.30
2007,07,18,09,57,17.30
2007,07,18,09,58,17.40
2007,07,18,09,59,17.40
2007,07,18,10,00,17.40
2007,07,18,10,01,17.40
2007,07,18,10,02,17.50
2007,07,18,10,03,17.50
2007,07,18,10,04,17.50
2007,07,18,10,05,17.60
2007,07,18,10,06,17.60
2007,07,18,10,07,17.60
2007,07,18,10,08,17.60
2007,07,18,10,09,17.70
2007,07,18,10,10,17.70
2007,07,18,10,11,17.70
2007,07,18,10,12,17.70
2007,07,18,10,13,17.70
2007,07,18,10,14,17.80
2007,07,18,10,15,17.80
2007,07,18,10,16,17.80
2007,07,18,10,17,17.80
2007,07,18,10,18,17.80
2007,07,18,10,19,17.80
2007,07,18,10,20,17.80
2007,07,18,10,21,17.90
2007,07,18,10,22,17.90
2007,07,18,10,23,17.90
2007,07,18,10,24,17.90
2007,07,18,10,25,17.90
2007,07,18,10,26,17.90
2007,07,18,10,27,17.90
2007,07,18,10,28,17.90
2007,07,18,10,29,17.90
2007,07,18,10,30,17.90
2007,07,18,10,31,17.90
2007,07,18,10,32,17.90
2007,07,18,10,33,17.90
2007,07,18,10,34,17.90
2007,07,18,10,35,17.90
2007,07,18,10,36,17.90
2007,07,18,10,37,17.90
2007,07,18,10,38,17.90
2007,07,18,10,39,18.00
2007,07,18,10,40,18.00
2007,07,18,10,41,18.00
2007,07,18,10,42,18.00
2007,07,18,10,43,18.00
2007,07,18,10,44,18.00
2007,07,18,10,45,17.90
2007,07,18,10,46,17.90
2007,07,18,10,47,17.90
2007,07,18,10,48,17.90
2007,07,18,10,49,17.90
2007,07,18,10,50,17.90
2007,07,18,10,51,17.90
2007,07,18,10,52,17.90
2007,07,18,10,53,17.90
2007,07,18,10,54,17.90
2007,07,18,10,55,17.90
2007,07,18,10,56,17.90
2007,07,18,10,57,17.90
2007,07,18,10,58,17.90
2007,07,18,10,59,17.90
2007,07,18,11,00,17.90
2007,07,18,11,01,17.80
2007,07,18,11,02,17.80
2007,07,18,11,03,17.80
2007,07,18,11,04,17.80
2007,07,18,11,05,17.80
2007,07,18,11,06,17.80
2007,07,18,11,07,17.80
2007,07,18,11,08,17.80
2007,07,18,11,09,17.80
2007,07,18,11,10,17.80
2007,07,18,11,11,17.80
2007,07,18,11,12,17.80
2007,07,18,11,13,17.90
2007,07,18,11,14,17.90
2007,07,18,11,15,17.90
2007,07,18,11,16,17.90
2007,07,18,11,17,17.90
2007,07,18,11,18,17.90
2007,07,18,11,19,17.90
2007,07,18,11,20,18.00
2007,07,18,11,21,18.00
2007,07,18,11,22,18.00
2007,07,18,11,23,18.00
2007,07,18,11,24,18.00
2007,07,18,11,25,17.90
2007,07,18,11,26,17.90
2007,07,18,11,27,17.90
2007,07,18,11,28,17.80
2007,07,18,11,29,17.80
2007,07,18,11,30,17.80
2007,07,18,11,31,17.80
2007,07,18,11,32,17.70
2007,07,18,11,33,17.60
2007,07,18,11,34,17.60
2007,07,18,11,35,17.50
2007,07,18,11,36,17.40
2007,07,18,11,37,17.40
2007,07,18,11,38,17.40
2007,07,18,11,39,17.30
2007,07,18,11,40,17.30
2007,07,18,11,41,17.20
2007,07,18,11,42,17.20
2007,07,18,11,43,17.20
2007,07,18,11,44,17.10
2007,07,18,11,45,17.10
2007,07,18,11,46,17.10
2007,07,18,11,47,17.10
2007,07,18,11,48,17.10
2007,07,18,11,49,17.10
2007,07,18,11,50,17.00
2007,07,18,11,51,17.00
2007,07,18,11,52,17.00
2007,07,18,11,53,17.00
2007,07,18,11,54,17.00
2007,07,18,11,55,17.10
2007,07,18,11,56,17.10
2007,07,18,11,57,17.00
2007,07,18,11,58,17.00
2007,07,18,11,59,17.00
2007,07,18,12,00,16.90
2007,07,18,12,01,16.90
2007,07,18,12,02,17.00
2007,07,18,12,03,17.00
2007,07,18,12,04,17.00
2007,07,18,12,05,17.00
2007,07,18,12,06,17.00
2007,07,18,12,07,17.00
2007,07,18,12,08,17.00
2007,07,18,12,09,17.00
2007,07,18,12,10,17.00
2007,07,18,12,11,17.00
2007,07,18,12,12,17.00
2007,07,18,12,13,17.00
2007,07,18,12,14,17.00
2007,07,18,12,15,17.00
2007,07,18,12,16,17.00
2007,07,18,12,17,17.00
2007,07,18,12,18,17.00
2007,07,18,12,19,17.00
2007,07,18,12,20,17.00
2007,07,18,12,21,17.00
2007,07,18,12,22,17.00
2007,07,18,12,23,17.10
2007,07,18,12,24,17.00
2007,07,18,12,25,17.00
2007,07,18,12,26,16.90
2007,07,18,12,27,16.90
2007,07,18,12,28,16.90
2007,07,18,12,29,16.90
2007,07,18,12,30,16.90
2007,07,18,12,31,16.80
2007,07,18,12,32,16.80
2007,07,18,12,33,16.80
2007,07,18,12,34,16.80
2007,07,18,12,35,16.80
2007,07,18,12,36,16.80
2007,07,18,12,37,16.80
2007,07,18,12,38,16.80
2007,07,18,12,39,16.80
2007,07,18,12,40,16.80
2007,07,18,12,41,16.80
2007,07,18,12,42,16.80
2007,07,18,12,43,16.70
2007,07,18,12,44,16.70
2007,07,18,12,45,16.70
2007,07,18,12,46,16.70
2007,07,18,12,47,16.70
2007,07,18,12,48,16.70
2007,07,18,12,49,16.70
2007,07,18,12,50,16.70
2007,07,18,12,51,16.60
2007,07,18,12,52,16.60
2007,07,18,12,53,16.60
2007,07,18,12,54,16.60
2007,07,18,12,55,16.60
2007,07,18,12,56,16.50
2007,07,18,12,57,16.50
2007,07,18,12,58,16.50
2007,07,18,12,59,16.40
2007,07,18,13,00,16.40
2007,07,18,13,01,16.40
2007,07,18,13,02,16.40
2007,07,18,13,03,16.40
2007,07,18,13,04,16.40
2007,07,18,13,05,16.30
2007,07,18,13,06,16.30
2007,07,18,13,07,16.30
2007,07,18,13,08,16.30
2007,07,18,13,09,16.30
2007,07,18,13,10,16.30
2007,07,18,13,11,16.30
2007,07,18,13,12,16.30
2007,07,18,13,13,16.30
2007,07,18,13,14,16.30
2007,07,18,13,15,16.30
2007,07,18,13,16,16.30
2007,07,18,13,17,16.30
2007,07,18,13,18,16.20
2007,07,18,13,19,16.20
2007,07,18,13,20,16.20
2007,07,18,13,21,16.20
2007,07,18,13,22,16.20
2007,07,18,13,23,16.20
2007,07,18,13,24,16.20
2007,07,18,13,25,16.20
2007,07,18,13,26,16.10
2007,07,18,13,27,16.10
2007,07,18,13,28,16.10
2007,07,18,13,29,16.10
2007,07,18,13,30,16.10
2007,07,18,13,31,16.10
2007,07,18,13,32,16.10
2007,07,18,13,33,16.10
2007,07,18,13,34,16.10
2007,07,18,13,35,16.10
2007,07,18,13,36,16.10
2007,07,18,13,37,16.10
2007,07,18,13,38,16.10
2007,07,18,13,39,16.10
2007,07,18,13,40,16.00
2007,07,18,13,41,16.00
2007,07,18,13,42,16.00
2007,07,18,13,43,16.00
2007,07,18,13,44,16.00
2007,07,18,13,45,16.10
2007,07,18,13,46,16.10
2007,07,18,13,47,16.00
2007,07,18,13,48,16.00
2007,07,18,13,49,16.00
2007,07,18,13,50,16.10
2007,07,18,13,51,16.10
2007,07,18,13,52,16.10
2007,07,18,13,53,16.10
2007,07,18,13,54,16.10
2007,07,18,13,55,16.10
2007,07,18,13,56,16.10
2007,07,18,13,57,16.10
2007,07,18,13,58,16.10
2007,07,18,13,59,16.10
2007,07,18,14,00,16.10
2007,07,18,14,01,16.10
2007,07,18,14,02,16.10
2007,07,18,14,03,16.10
2007,07,18,14,04,16.10
2007,07,18,14,05,16.10
2007,07,18,16,20,16.70
2007,07,18,16,21,16.70
2007,07,18,16,22,16.70
2007,07,18,16,23,16.70
2007,07,18,16,24,16.70
2007,07,18,16,25,16.70
2007,07,18,16,26,16.70
2007,07,18,16,27,16.80
2007,07,18,16,28,16.80
2007,07,18,16,29,16.80
2007,07,18,16,30,16.80
2007,07,18,16,31,16.80
2007,07,18,16,32,16.80
2007,07,18,16,33,16.80
2007,07,18,16,34,16.80
2007,07,18,16,35,16.90
2007,07,18,16,36,16.90
2007,07,18,16,37,16.80
2007,07,18,16,38,16.80
2007,07,18,16,39,16.80
2007,07,18,16,40,16.80
2007,07,18,16,41,16.90
2007,07,18,16,42,16.90
2007,07,18,16,43,16.90
2007,07,18,16,44,16.90
2007,07,18,16,45,16.90
2007,07,18,16,46,16.90
2007,07,18,16,47,16.90
2007,07,18,16,48,16.90
2007,07,18,16,49,16.90
2007,07,18,16,50,16.90
2007,07,18,16,51,16.90
2007,07,18,16,52,16.90
2007,07,18,16,53,16.90
2007,07,18,16,54,16.80
2007,07,18,16,55,16.80
2007,07,18,16,56,16.80
2007,07,18,16,57,16.80
2007,07,18,16,58,16.80
2007,07,18,16,59,16.80
2007,07,18,17,00,16.80
2007,07,18,17,01,16.80
2007,07,18,17,02,16.80
2007,07,18,17,03,16.80
2007,07,18,17,04,16.90
2007,07,18,17,05,16.90
2007,07,18,17,06,16.90
2007,07,18,17,07,16.90
2007,07,18,17,08,16.90
2007,07,18,17,09,16.90
2007,07,18,17,10,16.90
2007,07,18,17,11,16.90
2007,07,18,17,12,16.90
2007,07,18,17,13,17.00
2007,07,18,17,14,17.00
2007,07,18,17,15,17.00
2007,07,18,17,16,17.10
2007,07,18,17,17,17.10
2007,07,18,17,18,17.20
2007,07,18,17,19,17.30
2007,07,18,17,20,17.30
2007,07,18,17,21,17.30
2007,07,18,17,22,17.30
2007,07,18,17,23,17.30
2007,07,18,17,24,17.30
2007,07,18,17,25,17.30
2007,07,18,17,26,17.30
2007,07,18,17,27,17.30
2007,07,18,17,28,17.30
2007,07,18,17,29,17.30
2007,07,18,17,30,17.30
2007,07,18,17,31,17.20
2007,07,18,17,32,17.20
2007,07,18,17,33,17.20
2007,07,18,17,34,17.20
2007,07,18,17,35,17.20
2007,07,18,17,36,17.20
2007,07,18,17,37,17.20
2007,07,18,17,38,17.20
2007,07,18,17,39,17.10
2007,07,18,17,40,17.20
2007,07,18,17,41,17.20
2007,07,18,17,42,17.10
2007,07,18,17,43,17.10
2007,07,18,17,44,17.10
2007,07,18,17,45,17.10
2007,07,18,17,46,17.10
2007,07,18,17,47,17.10
2007,07,18,17,48,17.10
2007,07,18,17,49,17.10
2007,07,18,17,50,17.00
2007,07,18,17,51,17.00
2007,07,18,17,52,17.00
2007,07,18,17,53,16.90
2007,07,18,17,54,17.00
2007,07,18,17,55,17.00
2007,07,18,17,56,16.90
2007,07,18,17,57,16.90
2007,07,18,17,58,16.90
2007,07,18,17,59,16.90
2007,07,18,18,00,16.90
2007,07,18,18,01,16.90
2007,07,18,18,02,16.90
2007,07,18,18,03,16.90
2007,07,18,18,04,16.80
2007,07,18,18,05,16.80
2007,07,18,18,06,16.80
2007,07,18,18,07,16.80
2007,07,18,18,08,16.80
2007,07,18,18,09,16.80
2007,07,18,18,10,16.80
2007,07,18,18,11,16.80
2007,07,18,18,12,16.80
2007,07,18,18,13,16.80
2007,07,18,18,14,16.70
2007,07,18,18,15,16.70
2007,07,18,18,16,16.70
2007,07,18,18,17,16.70
2007,07,18,18,18,16.70
2007,07,18,18,19,16.80
2007,07,18,18,20,16.80
2007,07,18,18,21,16.80
2007,07,18,18,22,16.80
2007,07,18,18,23,16.80
2007,07,18,18,24,16.70
2007,07,18,18,25,16.70
2007,07,18,18,26,16.70
2007,07,18,18,27,16.70
2007,07,18,18,28,16.70
2007,07,18,18,29,16.70
2007,07,18,18,30,16.70
2007,07,18,18,31,16.70
2007,07,18,18,32,16.70
2007,07,18,18,33,16.70
2007,07,18,18,34,16.60
2007,07,18,18,35,16.60
2007,07,18,18,36,16.60
2007,07,18,18,37,16.50
2007,07,18,18,38,16.50
2007,07,18,18,39,16.50
2007,07,18,18,40,16.40
2007,07,18,18,41,16.40
2007,07,18,18,42,16.40
2007,07,18,18,43,16.40
2007,07,18,18,44,16.40
2007,07,18,18,45,16.40
2007,07,18,18,46,16.40
2007,07,18,18,47,16.40
2007,07,18,18,48,16.40
2007,07,18,18,49,16.40
2007,07,18,18,50,16.30
2007,07,18,18,51,16.30
2007,07,18,18,52,16.30
2007,07,18,18,53,16.30
2007,07,18,18,54,16.30
2007,07,18,18,55,16.30
2007,07,18,18,56,16.30
2007,07,18,18,57,16.20
2007,07,18,18,58,16.20
2007,07,18,18,59,16.20
2007,07,18,19,00,16.20
2007,07,18,19,01,16.20
2007,07,18,19,02,16.20
2007,07,18,19,03,16.20
2007,07,18,19,04,16.10
2007,07,18,19,05,16.10
2007,07,18,19,06,16.10
2007,07,18,19,07,16.10
2007,07,18,19,08,16.10
2007,07,18,19,09,16.10
2007,07,18,19,10,16.10
2007,07,18,19,11,16.10
2007,07,18,19,12,16.10
2007,07,18,19,13,16.10
2007,07,18,19,14,16.10
2007,07,18,19,15,16.10
2007,07,18,19,16,16.10
2007,07,18,19,17,16.20
2007,07,18,19,18,16.20
2007,07,18,19,19,16.10
2007,07,18,19,20,16.10
2007,07,18,19,21,16.10
2007,07,18,19,22,16.10
2007,07,18,19,23,16.10
2007,07,18,19,24,16.10
2007,07,18,19,25,16.10
2007,07,18,19,26,16.10
2007,07,18,19,27,16.10
2007,07,18,19,28,16.10
2007,07,18,19,29,16.10
2007,07,18,19,30,16.10
2007,07,18,19,31,16.10
2007,07,18,19,32,16.10
2007,07,18,19,33,16.10
2007,07,18,19,34,16.10
2007,07,18,19,35,16.10
2007,07,18,19,36,16.10
2007,07,18,19,37,16.10
2007,07,18,19,38,16.10
2007,07,18,19,39,16.10
2007,07,18,19,40,16.10
2007,07,18,19,41,16.10
2007,07,18,19,42,16.10
2007,07,18,19,43,16.10
2007,07,18,19,44,16.10
2007,07,18,19,45,16.10
2007,07,18,19,46,16.10
2007,07,18,19,47,16.10
2007,07,18,19,48,16.10
2007,07,18,19,49,16.10
2007,07,18,19,50,16.10
2007,07,18,19,51,16.10
2007,07,18,19,52,16.10
2007,07,18,19,53,16.10
2007,07,18,19,54,16.10
2007,07,18,19,55,16.10
2007,07,18,19,56,16.10
2007,07,18,19,57,16.10
2007,07,18,19,58,16.10
2007,07,18,19,59,16.10
2007,07,18,20,00,16.10
2007,07,18,20,01,16.10
2007,07,18,20,02,16.20
2007,07,18,20,03,16.20
2007,07,18,20,04,16.20
2007,07,18,20,05,16.20
2007,07,18,20,06,16.20
2007,07,18,20,07,16.20
2007,07,18,20,08,16.20
2007,07,18,20,09,16.20
2007,07,18,20,10,16.20
2007,07,18,20,11,16.20
2007,07,18,20,12,16.20
2007,07,18,20,13,16.20
2007,07,18,20,14,16.20
2007,07,18,20,15,16.20
2007,07,18,20,16,16.20
2007,07,18,20,17,16.20
2007,07,18,20,18,16.20
2007,07,18,20,19,16.20
2007,07,18,20,20,16.20
2007,07,18,20,21,16.20
2007,07,18,20,22,16.20
2007,07,18,20,23,16.20
2007,07,18,20,24,16.20
2007,07,18,20,25,16.20
2007,07,18,20,26,16.20
2007,07,18,20,27,16.20
2007,07,18,20,28,16.20
2007,07,18,20,29,16.20
2007,07,18,20,30,16.20
2007,07,18,20,31,16.20
2007,07,18,20,32,16.20
2007,07,18,20,33,16.20
2007,07,18,20,34,16.20
2007,07,18,20,35,16.20
2007,07,18,20,36,16.10
2007,07,18,20,37,16.10
2007,07,18,20,38,16.10
2007,07,18,20,39,16.00
2007,07,18,20,40,16.00
2007,07,18,20,41,15.90
2007,07,18,20,42,15.90
2007,07,18,20,43,15.90
2007,07,18,20,44,15.80
2007,07,18,20,45,15.80
2007,07,18,20,46,15.80
2007,07,18,20,47,15.80
2007,07,18,20,48,15.80
2007,07,18,20,49,15.80
2007,07,18,20,50,15.80
2007,07,18,20,51,15.80
2007,07,18,20,52,15.70
2007,07,18,20,53,15.70
2007,07,18,20,54,15.70
2007,07,18,20,55,15.70
2007,07,18,20,56,15.70
2007,07,18,20,57,15.70
2007,07,18,20,58,15.70
2007,07,18,20,59,15.70
2007,07,18,21,00,15.60
2007,07,18,21,01,15.60
2007,07,18,21,02,15.60
2007,07,18,21,03,15.60
2007,07,18,21,04,15.60
2007,07,18,21,05,15.60
2007,07,18,21,06,15.60
2007,07,18,21,07,15.60
2007,07,18,21,08,15.60
2007,07,18,21,09,15.60
2007,07,18,21,10,15.60
2007,07,18,21,11,15.60
2007,07,18,21,12,15.60
2007,07,18,21,13,15.60